Regional Weather Roundup
Issued by NWS Grand Forks, ND

Home | Current Version | Previous Version | Graphics & Text | Print | Product List | Glossary On
Versions: 1 2 3 4 5 6 7 8 9 10 11 12 13 14 15 16 17 18 19 20 21 22 23 24 25 26 27 28 29 30 31 32 33 34 35 36 37 38 39 40 41 42 43 44 45 46 47 48 49 50
946
ASUS43 KFGF 070031
RWRFGF
PRAIRIE TO PINES  WEATHER ROUNDUP
NATIONAL WEATHER SERVICE EASTERN NORTH DAKOTA/GRAND FORKS ND
600 PM CST SAT FEB 06 2016

 **SATELLITE DATA USED TO AUGMENT SKY COVER AT AUTOMATED STATIONS**
 *****  WEATHER ACROSS EASTERN NORTH DAKOTA  *****

CITY           SKY/WX    TMP DP  RH WIND       PRES   REMARKS
GRAND FORKS    CLOUDY    40  31  70 SW13      29.57F
6HR MIN TEMP:  33; 6HR MAX TEMP:  40; 6HR PCP: TRACE;

GRAND FRKS AFB CLOUDY    40  31  70 W16G22    29.55F
GRAND FRKS NWS   N/A     37 N/A N/A W9          N/A
DEVILS LAKE    CLOUDY    41  31  67 W18       29.55F
6HR MIN TEMP:  37; 6HR MAX TEMP:  43; 6HR PCP: TRACE;

FARGO          CLOUDY    39  31  72 SW16      29.67R
WAHPETON ARPT  CLOUDY    36  30  80 SW13      29.74S
$$

 ***** WEATHER ACROSS CENTRAL AND WESTERN NORTH DAKOTA  *****

CITY           SKY/WX    TMP DP  RH WIND       PRES   REMARKS
BISMARCK       MOCLDY    50  24  36 W12       29.70R
6HR MIN TEMP:  47; 6HR MAX TEMP:  54; 6HR PCP: TRACE;

MINOT          MOCLDY    48  26  42 W23G33    29.56S
6HR MIN TEMP:  47; 6HR MAX TEMP:  51; 6HR PCP: TRACE;

JAMESTOWN      PTCLDY    39  33  79 W9        29.65F
6HR MIN TEMP:  39; 6HR MAX TEMP:  44; 6HR PCP:  0.01;

MINOT AFB      MOCLDY    44  29  56 W20G28    29.54S
GARRISON         N/A     45  23  42 W23G31    29.62S
WILLISTON      MOCLDY    41  31  67 NW31G39   29.69R
6HR MIN TEMP:  41; 6HR MAX TEMP:  49;

DICKINSON      MOCLDY    43  18  36 W37G53    29.72R
6HR MIN TEMP:  43; 6HR MAX TEMP:  53;

HETTINGER      PTCLDY    42  20  41 W20G31    29.81R
6HR MIN TEMP:  42; 6HR MAX TEMP:  56;

$$

 *****  OTHER AIRPORT OBSERVATIONS IN OUR AREA  *****

CITY           SKY/WX    TMP DP  RH WIND       PRES   REMARKS
WALHALLA       FAIR      39  32  75 W14G20    29.46F
GRAFTON AIRPOR FAIR      37  32  81 SW10      29.53F
VALLEY CITY AR MOCLDY    39  39 100 W9        29.66F
CANDO          FAIR      37  32  81 SW16      29.54R
CAVALIER APRT  FAIR      39  32  75 SW8       29.48F
GWINNER          N/A     37  36  93 SW13      29.73F
SHEYENNE NWR     N/A     39  34  83 SW14      29.95S
ROLLA          FAIR      37  32  81 W16       29.49R
 ***** THE ABOVE OBSERVATIONS ARE NON NWS ARE NOT QUALITY
       CONTROLLED AND MAY MIS-REPORT RAIN FOR SNOW...
$$

  *****  WEATHER ACROSS NORTHERN MINNESOTA  *****

CITY           SKY/WX    TMP DP  RH WIND       PRES   REMARKS
FLAG ISLAND    LGT SNOW  28  27  93 SE8       29.57F WCI  20
WARROAD        CLOUDY    32  28  86 SE8       29.57F WCI  25
ROSEAU         CLOUDY    34  28  80 S9        29.55F
HALLOCK        PTCLDY    34  30  86 S14       29.51F WCI  24
THF RVR FALLS  CLOUDY    36  28  75 S14       29.58F
6HR MIN TEMP:  30; 6HR MAX TEMP:  36;

BAUDETTE       CLOUDY    31  28  89 SE8       29.60F WCI  23
6HR MIN TEMP:  31; 6HR MAX TEMP:  33; 6HR PCP:  0.02;

WASKISH        CLOUDY    34  27  75 CALM      29.61F
CROOKSTON      CLOUDY    36  32  87 SW15      29.60F
STEPHEN NDAWN    N/A     34  30  86 S14         N/A  WCI  24
GREENBUSH NDAW   N/A     34  30  86 S12         N/A
$$
  *****  WEATHER ACROSS CENTRAL AND WEST MINNESOTA  *****

CITY           SKY/WX    TMP DP  RH WIND       PRES   REMARKS
FOSSTON        CLOUDY    34  28  80 S17       29.62F WCI  23
BEMIDJI        CLOUDY    35  26  72 S8        29.62F
PARK RAPIDS    CLOUDY    36  27  69 S9        29.65F
6HR MIN TEMP:  33; 6HR MAX TEMP:  38; 6HR PCP: TRACE;

ELBOW LAKE     RAIN      34  31  89 SW17      29.77R WCI  23
WADENA         DRIZZLE   34  28  80 S8        29.67F
DETROIT LAKES  CLOUDY    36  32  87 SW16G22   29.68R
MOORHEAD       PTCLDY    37  32  81 SW9       29.68F
FERGUS FALLS   RAIN      34  30  86 SW8       29.77R
MORRIS MN      CLOUDY    36  30  80 SW15      29.74S
STAPLES        CLOUDY    36  27  69 S8        29.70S
$$
  *****  WEATHER ELSEWHERE ACROSS MINNESOTA  *****

CITY           SKY/WX    TMP DP  RH WIND       PRES   REMARKS
DULUTH         CLOUDY    32  25  75 S13       29.74F WCI  22
6HR MIN TEMP:  28; 6HR MAX TEMP:  34;

INTRNTL FALLS  LGT SNOW  30  28  92 SE8       29.63F VSB 1   WCI  22
6HR MIN TEMP:  26; 6HR MAX TEMP:  33; 6HR PCP:  0.05;

ELY            LGT SNOW  28  27  93 SE8       29.70F WCI  20
CLOQUET        CLOUDY    34  25  69 S9G17     29.74S
WHEATON        CLOUDY    37  32  81 SW12      29.78R
BRAINERD       CLOUDY    36  26  67 S13G21    29.71F
6HR MIN TEMP:  31; 6HR MAX TEMP:  37;

HIBBING        CLOUDY    32  24  72 S8        29.70S WCI  25
6HR MIN TEMP:  27; 6HR MAX TEMP:  34; 6HR PCP: TRACE;

ALEXANDRIA     MIX PCPN  34  30  85 SW16      29.73F WCI  24
6HR MIN TEMP:  34; 6HR MAX TEMP:  38; 6HR PCP: TRACE;

SAINT CLOUD    CLOUDY    34  27  75 S10       29.78F
6HR MIN TEMP:  30; 6HR MAX TEMP:  37;

MINNEAPOLIS    CLOUDY    35  26  69 S15G21    29.86F
6HR MIN TEMP:  33; 6HR MAX TEMP:  36;

$$

  *****  WEATHER ACROSS SOUTH DAKOTA  *****

CITY           SKY/WX    TMP DP  RH WIND       PRES   REMARKS
SIOUX FALLS    CLOUDY    34  26  72 SW10      29.86F
6HR MIN TEMP:  29; 6HR MAX TEMP:  36;

BROOKINGS      CLOUDY    33  28  81 S10       29.81S WCI  25
WATERTOWN      CLOUDY    33  27  78 S9        29.77F
6HR MIN TEMP:  33; 6HR MAX TEMP:  36; 6HR PCP: TRACE;

HURON          CLOUDY    37  31  78 S5        29.80S
6HR MIN TEMP:  35; 6HR MAX TEMP:  40;

SISSETON         N/A     38  30  73 W20G28    29.73R
ABERDEEN       CLOUDY    39  32  76 S8        29.77R
6HR MIN TEMP:  39; 6HR MAX TEMP:  44; 6HR PCP: TRACE;

MITCHELL       CLOUDY    40  32  73 S9        29.83S
PIERRE         MOCLDY    46  29  51 W14       29.81R
6HR MIN TEMP:  43; 6HR MAX TEMP:  50;

MOBRIDGE       CLOUDY    52  22  30 W20G31    29.74R
RAPID CITY     PTCLDY    42  29  59 N29G46    29.91R
6HR MIN TEMP:  42; 6HR MAX TEMP:  56;

$$

  *****  SOME WEATHER IN NEARBY STATES *****

CITY           SKY/WX    TMP DP  RH WIND       PRES   REMARKS
GLASGOW MT     MOCLDY    38  28  67 W29G39    29.86R
6HR MIN TEMP:  38; 6HR MAX TEMP:  44; 6HR PCP: TRACE;

GREAT FALLS MT CLOUDY    37  16  42 W20       30.07R
6HR MIN TEMP:  37; 6HR MAX TEMP:  43;

CHEYENNE WY    CLOUDY    43  17  35 NW16G23   30.07S
6HR MIN TEMP:  36; 6HR MAX TEMP:  44;

SCOTTSBLUFF NE CLOUDY    40  25  55 W22G30    30.00F
6HR MIN TEMP:  39; 6HR MAX TEMP:  44;

OMAHA NE       MOCLDY    39  27  62 S15       30.02F
6HR MIN TEMP:  35; 6HR MAX TEMP:  41;

DES MOINES IA  CLOUDY    35  29  78 S12       30.08F
6HR MIN TEMP:  31; 6HR MAX TEMP:  38;

DAVENPORT IA   PTCLDY    36  29  75 CALM      30.13F
6HR MIN TEMP:  34; 6HR MAX TEMP:  42;

CHICAGO IL     PTCLDY    37  28  70 SW7       30.14S
6HR MIN TEMP:  34; 6HR MAX TEMP:  41;

EAU CLAIRE WI  CLOUDY    32  23  69 S12       29.93F WCI  23
6HR MIN TEMP:  29; 6HR MAX TEMP:  34;

LA CROSSE WI   CLOUDY    30  24  78 S13       30.02F WCI  20
6HR MIN TEMP:  30; 6HR MAX TEMP:  33;

$$

  *****  SOME NATIONAL WEATHER *****

CITY           SKY/WX    TMP DP  RH WIND       PRES   REMARKS
LA GUARDIA NY  MOCLDY    39  19  44 SW9       30.29S
6HR MIN TEMP:  39; 6HR MAX TEMP:  40;

RALEIGH NC     CLOUDY    38  23  55 CALM      30.31S
6HR MIN TEMP:  36; 6HR MAX TEMP:  48;

ATLANTA GA     PTCLDY    45  16  31 E7        30.22F
6HR MIN TEMP:  45; 6HR MAX TEMP:  51;

NEW ORLEANS LA MOCLDY    52  21  29 W3        30.26S
6HR MIN TEMP:  52; 6HR MAX TEMP:  58;

OKLAHOMA CITY  PTCLDY    47  26  44 SW5       30.27F
6HR MIN TEMP:  46; 6HR MAX TEMP:  52;

ALBUQUERQUE NM CLEAR     49   8  19 SW5       30.33S
6HR MIN TEMP:  39; 6HR MAX TEMP:  50;

SALT LAKE CITY CLOUDY    34  26  72 N7        30.45F
6HR MIN TEMP:  30; 6HR MAX TEMP:  41;

LOS ANGELES CA SUNNY     70  32  24 W8        30.14F
6HR MIN TEMP:  69; 6HR MC1F1C2F2C3F3C4F4C5F5C6F6C7F7C8F8C9F9CaFaCbFbCcFcCd!



USA.gov is the U.S. government's official web portal to all federal, state and local government web resources and services.